Find Starlink 31357

NORAD ID: 59502 Int'l Des: 2024-071 Owner: SPXS Country: US Constellation: starlink operational
LEOCIRCULAR

現在のビュー

3D地球を読み込み中...

About Starlink 31357

Starlink 31357 (NORAD 59502) is a starlink constellation satellite (v2 mini) launched Apr 13, 2024 by SPXS of US. It operates in LEO, CIRCULAR orbit with a mass of 730.00 kg.

次回通過

Passes for default location (London). Set your location on the main map for personalized predictions.

高度履歴

Loading altitude history...

軌道要素

1 59502U 24071U 26263.22785205 .00009280 00000-0 34689-3 0 9997
2 59502 43.0058 321.4400 0001001 284.2016 75.8724 15.27527140137954
Epoch: Sep 20, 2026 • Age: 30 hours

現在のステータス

高度 492.7 km
遠地点 / 近地点 N/A
速度 7.62 km/s
衛星直下点 -35.49°S, 99.17°E
打ち上げ日 Apr 13, 2024
運用期間 2.4 years
タイプ internet

技術仕様

分類 Payload
質量 730.00 kg
乾燥質量 700.00 kg
長さ 0.30 m
スパン 29.00 m
形状 ? Box + pan
製造者 SPXS
バスタイプ Starlink V2M
フェーズステータス In Orbit
所有者/国 SPXS/US

Most Searched